User: anonymous   Login
Location: ???????
(54.6339°N, 39.4245°E)
Time: 02:27:31
(UTC+00:00)
Language:

Meteor 2-4 Rocket - Orbit

View from above orbital plane
View from above orbital plane
View from above satellite
View from above satellite

Ground track
Ground track

The orbit data is extracted from the following two-line orbital elements,

1 11289U 79021B   25191.44496971  .00000020  00000-0  35085-5 0  9990
2 11289  81.2461 170.1877 0075475 153.7879 206.7145 14.12035062386123
Epoch (UTC): 10 July 2025 10:40:45
Eccentricity: 0.0075475
inclination: 81.2461°
perigee height: 798 km
apogee height: 907 km
right ascension of ascending node: 170.1877°
argument of perigee: 153.7879°
revolutions per day: 14.12035062
mean anomaly at epoch: 206.7145°
orbit number at epoch: 38612

The dashed part of the orbit path shows where the satellite is in the earth's shadow,  

DLR